Location: Kershaw
(34.5481°N, 80.5823°W)
Time: 17:08:14
(UTC+00:00)

Courier 1B Rocket - Pass Details

Date: 05 October 2022
Orbit: 920 x 1202 km, 28.2° (Epoch: 08 December)

Event Time Altitude Azimuth Distance (km) Brightness Sun altitude
Rises 03:23:43 0° 267° (W) 3,640 8.4 -51.2°
Enters shadow 03:24:16 - 266° (W) 3,448 8.2 -51.3°
Reaches altitude 10° 03:26:37 10° 259° (W) 2,660 - -51.6°
Maximum altitude 03:32:17 34° 196° (SSW) 1,461 - -52.4°
Drops below altitude 10° 03:37:50 10° 133° (SE) 2,600 - -53.2°
Sets 03:40:38 0° 124° (SE) 3,547 - -53.6°
